Regional Weather Roundup
Issued by NWS New Orleans/Baton Rouge, LA

Home | Current Version | Previous Version | Graphics & Text | Print | Product List | Glossary On
Versions: 1 2 3 4 5 6 7 8 9 10 11 12 13 14 15 16 17 18 19 20 21 22 23 24 25 26 27 28 29 30 31 32 33 34 35 36 37 38 39 40 41 42 43 44 45 46 47 48 49 50
282
ASUS44 KLIX 260305
RWRLIX
NEW ORLEANS REGIONAL WEATHER ROUNDUP
NATIONAL WEATHER SERVICE NEW ORLEANS LA
1000 PM CDT SAT OCT 25 2014

NOTE: "FAIR" INDICATES FEW OR NO CLOUDS BELOW 12,000 FEET WITH NO
      SIGNIFICANT WEATHER AND/OR OBSTRUCTIONS TO VISIBILITY.
      SKY/WX - SKY CONDITION AND SIGNIFICANT WEATHER.
      TMP - AIR TEMPERATURE.     DP    - DEWPOINT TEMPERATURE.
      RH  - RELATIVE HUMIDITY.   PRES  - PRESSURE.
      HI  - HEAT INDEX.          WCI   - WIND CHILL INDEX.

*  THESE STATIONS ARE NOT NWS OR FAA STATIONS AND ARE NOT UNDER
   NWS QUALITY CONTROL.

LAZ038-040-048-061>063-065>067-069-260400-
SOUTHEAST LOUISIANA

CITY           SKY/WX    TMP DP  RH WIND       PRES   REMARKS
N.O. AUDUBON     N/A     64  62  92 MISG        N/A
N.O. INTL ARPT CLEAR     65  55  70 W6        30.09S
N.O. LAKEFRONT CLEAR     73  67  81 NW3       30.10R
N.O. DOWNTOWN*   N/A     73  54  49 CALM      30.10R
SLIDELL        CLEAR     60  56  86 CALM      30.08S
BATON ROUGE    CLEAR     59  55  87 CALM      30.10S
BOOTHVILLE     CLEAR     66  60  81 CALM      30.10R
BELLE CHASSE   CLEAR     60  55  83 CALM      30.09R
BOGALUSA*        N/A     61  57  87 CALM      30.10S
NEW ROADS*       N/A     58  55  90 CALM      30.10S
GONZALES*        N/A     58  58 100 CALM      30.10S
HAMMOND*       CLEAR     63  57  82 CALM      30.11S
HOUMA*         CLEAR     60  57  90 CALM      30.10S
PORT FOURCHON* CLEAR     70  63  78 CALM      30.13S

$$

MSZ070-080>082-260400-
SOUTHERN MISSISSIPPI

CITY           SKY/WX    TMP DP  RH WIND       PRES   REMARKS
MCCOMB         CLEAR     62  56  80 NW3       30.11R
GULFPORT       CLEAR     62  58  86 CALM      30.08R
BILOXI         CLEAR     66  60  81 W1        30.08R
PASCAGOULA     CLEAR     57  56  96 CALM      30.08S

$$

COASTAL OBSERVATIONS
LAKE AND NEARSHORE STATIONS

STATION/POSITION TIME  TEMP    WIND        PRES    WAVE
                       AIR SEA DIR/SP/G            HT/PER
                 (UTC) (F)     (DEG/KT/KT) (MB)    (FT/S)
PASCAGOULA       0300   67     290/  5/  6 1017.9
WAVELAND YACHT   0300   68     290/  3/  4 1017.9
GRAND ISLE       0300   70 72  260/  5/  5 1019.7
SOUTHWEST PASS   0300   70 80              1019.3
NEW CANAL        0300   72 71  260/  2/  3 1019.3
SHELL BEACH      0300   70 68  250/  6/  7 1018.7

OFFSHORE STATIONS

STATION/POSITION TIME  TEMP    WIND        PRES    WAVE
                       AIR SEA DIR/SP/G            HT/PER
                 (UTC) (F)     (DEG/KT/KT) (MB)    (FT/S)
64 S DAUPHIN ISL 0230   74 79  340/ 12/ 16 1019.0    2/ 4

$$




USA.gov is the U.S. government's official web portal to all federal, state and local government web resources and services.